ECMWFFLT1_500_spd_198.txt.gz
Wind_Speed
13 12 12 11 11 12 12 11 13 14 14 14 15 19 21 21 22 24 25 26 26 25 24 22 21 19 17 15 14 14 15 15 16 18 19 19 20 20 20 20 21 21 22 23 24 25 26 27 27 25 24 27 31 33 32 32 32 30 29 27 25 23 22
13 13 13 11 11 12 12 10 10 13 14 13 14 16 19 21 22 24 25 26 25 24 23 21 20 19 16 15 15 15 16 16 17 19 19 19 19 20 19 20 21 22 22 23 24 25 26 27 26 25 25 28 31 32 32 32 32 31 29 28 26 24 22
13 13 14 12 11 12 12 10 9 11 13 14 14 14 17 20 23 24 24 25 24 23 21 20 18 17 16 15 14 15 15 15 16 18 19 19 19 20 20 20 21 22 23 24 23 23 24 25 25 24 25 28 30 32 32 31 31 31 29 28 26 24 22
13 14 14 13 13 13 13 12 9 9 11 11 11 13 17 21 23 23 22 22 23 21 20 19 17 16 16 15 14 15 15 15 16 17 18 18 19 20 20 20 21 22 23 23 22 21 22 24 24 23 25 28 29 31 31 31 30 30 29 27 25 24 22
12 14 14 14 15 15 14 13 10 9 9 8 7 10 15 19 21 21 20 21 21 20 20 18 15 15 15 14 13 15 15 15 16 16 17 18 18 20 20 19 20 21 23 24 22 20 21 22 23 23 25 27 29 30 30 30 29 29 28 26 25 24 22
12 13 13 14 15 16 14 13 13 11 8 6 7 9 11 13 17 19 19 20 20 21 21 17 14 14 14 13 13 14 15 15 16 16 17 18 19 20 20 19 19 21 23 24 22 21 21 22 23 24 25 27 28 29 29 29 28 28 27 26 25 24 23
12 13 13 14 15 15 15 14 16 15 10 6 6 8 8 9 13 17 18 19 21 22 19 15 13 13 12 12 13 14 14 15 16 16 18 18 18 19 19 19 20 21 23 23 22 21 22 21 22 24 26 27 28 28 28 28 28 28 27 26 26 25 23
12 13 13 14 14 15 15 15 16 17 14 8 5 6 7 8 10 13 16 17 19 18 16 13 13 13 12 12 12 13 14 15 16 16 17 18 18 18 19 19 20 20 21 22 21 21 21 21 22 26 28 28 28 27 27 28 28 27 27 26 26 25 23
12 13 14 14 13 14 14 14 14 16 17 13 9 6 6 6 7 10 12 14 15 14 14 14 13 12 11 12 12 12 13 14 15 16 17 17 18 18 19 19 19 20 20 21 21 21 20 20 22 26 28 27 26 26 26 27 26 26 26 26 25 24 22
12 13 14 14 13 12 13 13 13 14 15 15 13 9 6 5 6 9 11 12 13 14 15 15 14 12 11 11 12 12 12 14 15 15 16 16 17 17 18 19 19 20 21 21 21 21 20 21 22 26 28 27 25 24 25 25 24 24 24 24 24 23 22
13 14 14 14 13 12 12 12 12 13 14 15 14 12 8 6 6 7 10 12 14 15 16 15 14 14 12 11 12 12 13 14 14 14 15 15 15 16 17 18 19 20 21 22 22 21 21 21 22 26 28 25 23 23 23 23 23 23 23 23 23 22 22
14 15 15 14 13 13 13 13 12 12 12 13 14 13 11 10 9 8 8 12 16 17 17 17 16 15 14 13 13 14 14 14 14 14 14 13 14 14 15 17 19 20 21 22 22 21 22 22 23 25 25 24 22 21 21 21 21 21 21 22 22 22 22
16 16 15 15 14 13 14 13 13 12 11 11 12 12 12 11 11 10 8 10 15 19 19 18 18 16 16 15 14 15 15 14 14 14 13 13 13 13 13 15 17 19 19 20 21 21 22 22 23 23 24 23 22 20 20 20 20 20 21 21 22 22 23
16 17 16 16 15 14 14 14 13 13 12 11 10 10 10 11 11 10 9 8 13 19 20 20 19 18 17 17 16 16 16 15 15 14 14 14 14 13 13 14 15 16 17 18 19 20 21 22 22 22 21 21 20 20 19 19 19 20 21 22 22 23 23
17 17 17 16 16 15 14 13 14 14 14 12 10 9 8 9 10 9 9 8 9 17 21 21 21 20 19 19 18 18 17 17 16 16 15 15 15 14 14 14 15 15 16 17 17 18 19 20 20 20 19 19 19 19 19 19 19 20 21 22 23 23 23
15 16 17 17 16 15 14 13 14 15 14 13 11 9 7 8 8 8 8 7 6 13 20 21 22 23 22 21 21 20 19 18 18 17 17 16 16 16 15 15 15 16 16 17 17 18 18 19 19 19 19 19 19 19 19 19 19 20 21 22 22 22 22
14 15 16 16 16 16 15 15 15 14 14 13 12 9 7 7 8 8 8 7 5 8 17 21 23 25 25 25 24 23 21 20 19 18 18 17 17 16 16 16 16 16 17 18 18 18 19 19 19 19 19 19 19 19 19 19 20 20 20 21 21 21 21
12 14 15 16 16 15 15 15 14 13 14 14 14 12 9 7 7 8 8 7 6 6 12 19 23 26 28 28 26 24 23 21 20 19 18 18 18 17 16 16 16 16 17 17 18 18 18 18 19 19 19 19 19 19 20 20 20 20 20 20 20 20 21
11 13 14 15 15 14 14 14 14 14 14 14 14 14 12 10 9 9 8 8 7 8 10 14 20 25 28 27 24 23 22 21 21 20 20 20 19 18 17 17 17 17 17 17 17 17 17 18 18 19 19 19 19 19 20 20 20 20 21 21 21 21 22
12 12 13 14 14 14 13 13 13 13 13 13 13 15 14 12 10 10 10 10 10 10 10 10 14 19 22 21 21 23 24 24 23 23 22 22 21 20 19 19 18 18 18 18 17 17 17 18 18 18 19 19 20 20 20 21 20 21 22 22 22 23 23
13 13 13 14 14 14 13 13 12 12 12 12 12 13 14 14 12 11 12 13 12 10 9 9 11 14 15 17 22 26 27 27 27 26 26 25 24 23 22 21 21 20 20 20 19 19 19 19 19 19 19 19 20 20 20 21 21 22 22 23 23 24 24
13 13 12 13 13 13 13 13 12 11 11 11 10 11 12 13 13 12 13 14 12 10 9 10 12 13 13 14 19 26 28 28 28 28 28 28 27 26 25 24 24 23 23 22 22 21 21 21 21 21 21 21 21 20 21 21 22 22 23 24 24 25 24
14 13 12 12 12 12 12 12 11 10 10 10 10 10 10 12 14 14 15 14 12 10 9 11 12 13 13 13 14 19 23 26 27 28 28 29 29 28 28 28 28 27 26 26 25 24 24 24 24 23 23 23 22 22 22 22 23 23 23 24 24 25 25
14 14 13 12 12 12 12 12 12 11 11 10 10 10 10 11 13 14 16 16 13 11 10 12 12 12 13 14 14 14 17 20 23 26 27 28 29 30 30 30 30 30 29 28 28 27 27 27 27 27 26 25 24 24 24 24 25 24 25 25 25 25 25
15 15 14 14 13 13 12 12 13 13 12 12 12 12 12 12 12 14 15 16 14 11 11 12 13 12 13 14 15 15 15 16 18 21 23 24 26 28 30 30 30 31 30 30 30 29 29 29 29 29 29 29 28 27 27 27 27 26 26 27 27 26 26
17 16 15 14 14 13 13 13 14 14 14 14 14 14 14 14 14 14 15 16 16 13 11 12 13 13 13 14 15 17 17 17 17 19 20 21 23 25 26 27 28 29 28 28 30 30 30 31 31 31 31 31 31 30 29 29 29 28 28 28 28 28 27
18 18 17 15 14 14 14 14 14 14 15 15 15 15 16 16 16 16 16 16 16 15 12 12 12 13 13 13 14 16 17 18 18 19 20 21 22 23 24 25 26 26 26 26 27 28 29 30 30 31 32 32 32 32 31 31 31 31 31 31 30 29 28
18 18 17 16 15 15 15 15 15 15 15 16 16 16 16 16 17 17 17 17 17 16 15 13 13 13 13 13 13 14 16 17 18 19 20 20 21 23 24 24 24 26 26 25 26 27 27 27 28 29 31 31 32 32 32 32 33 33 33 34 33 32 30
19 18 17 17 16 16 16 16 15 15 16 16 16 16 15 16 16 17 18 18 18 18 17 16 15 14 14 14 14 14 15 16 18 19 20 21 21 22 24 24 24 26 27 27 27 28 28 27 28 28 28 29 30 33 34 34 34 34 35 35 35 34 33
19 18 18 18 17 16 16 16 17 17 17 16 16 16 15 15 16 16 17 18 19 19 18 17 17 16 16 16 16 16 16 17 18 19 20 21 22 23 23 24 25 26 27 27 28 28 28 28 29 29 29 28 29 31 34 37 37 37 37 37 37 36 35
19 19 19 19 18 17 17 17 17 17 17 17 16 16 16 16 16 17 17 18 19 19 19 19 18 18 18 18 18 18 18 18 19 20 20 22 23 24 25 25 25 26 27 27 27 27 27 28 29 30 30 30 29 30 32 36 38 38 38 38 39 39 38
19 19 20 19 19 19 19 18 17 17 17 16 16 16 16 16 16 17 18 18 19 19 20 20 20 19 19 20 20 20 21 21 21 21 22 23 23 24 26 26 26 27 27 28 28 27 27 27 28 29 29 30 31 32 32 34 35 36 37 38 40 40 40
20 20 20 20 19 19 19 19 18 17 16 16 16 15 15 15 16 17 17 18 19 20 20 21 21 21 21 22 22 22 23 23 23 24 24 24 25 25 26 27 28 28 28 28 28 28 28 29 29 29 29 29 31 32 33 33 33 34 35 37 39 40 41
20 21 21 20 20 19 19 19 18 17 16 16 16 16 15 15 16 16 17 18 19 20 21 21 22 22 23 23 24 24 25 25 26 26 26 26 27 27 27 28 28 29 29 29 29 30 30 30 31 31 31 31 31 32 33 33 33 33 34 36 37 38 40
20 21 21 20 20 19 19 19 18 17 16 16 16 16 16 16 16 16 17 19 19 20 20 21 22 22 23 24 24 25 25 26 27 27 28 29 29 29 29 29 30 30 31 31 31 31 31 32 32 32 32 32 32 33 33 33 34 35 36 36 37 37 39
20 20 20 20 20 19 19 18 17 16 16 16 16 16 16 16 16 17 17 18 19 20 20 20 21 21 22 23 24 24 25 26 26 27 28 29 30 31 31 31 31 32 32 33 33 33 33 33 34 34 34 34 34 34 34 33 35 37 37 37 38 38 39
20 20 20 20 19 18 18 17 17 16 16 15 16 16 16 16 17 17 18 18 19 20 20 20 21 21 21 22 23 24 24 25 26 26 27 28 29 30 31 32 33 34 34 35 35 35 35 34 34 35 36 35 35 35 35 35 35 37 38 38 38 39 40
19 19 19 19 18 17 17 16 16 16 15 15 16 16 16 17 17 18 18 19 20 20 20 20 21 21 21 22 22 23 24 24 25 26 27 28 28 29 29 31 32 33 35 36 36 37 37 36 36 36 36 36 35 35 36 36 36 37 37 38 39 39 40

ECMWFFLT1_500_spd_204.txt.gz
Wind_Speed
13 14 14 12 10 11 10 12 16 18 21 23 24 24 23 22 22 21 22 20 16 17 19 18 18 19 19 20 21 21 21 22 22 21 21 20 20 21 21 21 23 25 24 23 22 23 24 26 26 25 24 23 23 24 24 24 24 24 24 24 23 21 21
13 13 14 12 10 10 10 11 14 16 18 20 22 23 22 21 20 20 20 18 15 15 17 17 18 19 20 21 21 21 22 22 22 21 20 20 20 20 21 23 25 24 23 23 23 23 24 25 26 26 25 24 23 23 24 24 24 25 25 25 25 24 22
16 13 13 13 10 9 10 10 12 14 16 18 19 21 21 20 19 19 19 17 14 14 15 16 17 19 20 21 21 22 22 22 21 19 19 20 20 21 21 21 22 22 22 24 24 23 22 23 24 24 24 24 23 23 24 24 23 24 25 27 27 25 24
18 15 13 12 9 9 9 9 11 13 14 16 17 17 17 18 18 17 17 16 15 16 17 18 19 19 20 21 22 23 23 22 20 18 18 19 19 20 20 19 20 21 22 24 24 22 21 21 22 23 23 23 23 23 24 22 21 22 25 27 28 27 25
18 15 14 13 10 9 8 8 10 11 13 14 15 15 14 15 15 15 14 15 16 17 19 19 20 21 20 21 22 23 23 23 21 18 18 18 18 19 20 19 20 21 22 24 23 20 20 21 22 22 22 21 22 23 24 22 20 20 23 26 28 28 26
16 14 15 15 11 8 7 6 8 10 11 13 14 14 13 13 13 12 12 13 15 17 19 20 20 20 20 21 22 22 22 22 19 18 17 18 18 19 19 20 21 22 22 23 21 20 19 19 20 20 19 20 21 24 24 23 20 19 21 25 28 28 27
13 13 14 15 11 9 7 4 5 8 10 11 13 13 12 13 11 10 10 11 12 15 19 20 20 20 21 22 22 21 22 21 18 17 16 17 18 18 19 20 20 21 22 21 19 19 18 17 19 19 19 19 21 23 24 23 21 19 20 24 27 28 27
12 11 13 14 13 10 8 3 3 6 8 10 12 13 12 13 12 9 8 7 8 10 15 19 20 21 22 22 21 21 21 21 18 17 17 17 17 18 19 19 19 20 21 20 18 18 18 17 19 19 18 18 19 21 22 22 21 20 19 22 26 27 27
13 11 12 13 13 11 9 5 2 4 6 8 11 12 12 12 12 10 7 5 5 5 9 15 19 20 21 21 20 20 20 20 20 18 17 17 18 17 18 19 19 20 21 19 18 19 19 18 19 18 17 17 18 19 20 20 20 19 20 22 24 26 26
15 13 11 12 13 13 11 7 2 2 5 7 8 10 11 11 11 9 6 4 4 4 6 9 13 16 18 19 19 19 19 20 20 19 18 17 17 16 17 18 19 20 22 20 18 19 19 18 18 18 16 16 16 17 18 19 20 20 20 22 24 25 26
14 13 10 11 14 16 13 8 3 0 3 5 6 8 9 9 9 8 6 4 2 4 6 7 10 15 18 19 19 18 18 18 18 17 18 17 17 17 18 18 19 20 21 20 18 18 18 17 19 19 17 16 16 17 18 19 20 21 21 22 23 24 25
13 12 10 10 13 15 13 10 6 2 0 3 5 6 6 7 7 7 6 4 2 4 7 11 14 17 18 16 16 16 15 15 15 16 17 17 17 17 18 19 19 19 20 19 19 21 20 19 20 20 18 17 17 17 18 20 21 22 23 23 23 23 23
11 11 11 11 11 11 11 11 10 7 3 1 3 4 4 3 4 5 6 5 4 4 5 8 13 16 16 14 13 13 13 14 14 15 15 15 16 16 17 18 17 18 20 19 18 21 21 19 19 20 19 18 18 18 19 21 22 22 23 23 22 22 23
10 10 11 10 9 9 9 9 11 10 7 3 0 2 1 1 2 3 5 6 5 4 4 5 10 14 14 14 13 13 14 14 14 14 14 14 15 16 17 17 16 18 20 18 16 19 20 19 19 20 20 19 19 19 20 21 22 22 22 21 21 21 22
9 9 9 9 7 6 7 8 10 10 8 6 3 3 4 4 3 2 4 6 5 3 3 5 10 13 14 15 15 15 14 13 14 15 14 14 15 16 16 16 17 18 19 18 18 19 19 19 19 20 20 19 19 19 20 20 21 21 20 20 21 21 21
6 7 8 7 6 6 7 9 10 10 7 5 6 7 8 8 6 3 5 7 5 5 4 4 8 13 16 16 16 15 14 13 14 14 13 14 15 16 16 16 17 18 18 18 19 20 19 19 20 20 21 20 20 19 20 20 21 21 21 21 21 21 21
8 7 7 7 6 6 8 10 10 8 6 6 7 7 7 8 8 8 9 9 7 6 6 5 4 8 14 16 15 15 14 14 15 14 14 15 15 16 16 15 16 18 18 18 18 19 19 19 20 21 21 21 20 20 20 22 22 22 21 21 21 21 22
8 8 8 8 7 7 8 9 9 7 6 6 5 5 6 8 10 11 11 9 6 5 6 7 6 5 9 14 15 15 16 16 16 15 15 15 16 16 16 15 16 18 18 17 17 17 18 18 20 21 21 21 20 20 21 22 23 22 21 21 21 22 22
9 9 9 8 7 8 9 8 6 6 7 6 6 6 6 7 9 9 10 8 6 4 4 5 6 6 5 10 14 16 16 16 16 17 17 17 17 17 17 16 15 17 17 17 17 17 17 18 19 19 20 20 20 20 21 21 22 22 22 22 22 22 22
9 10 9 8 7 9 10 7 6 5 6 7 7 6 7 7 7 8 9 8 7 5 4 3 3 5 5 5 11 16 18 18 18 18 17 17 16 16 17 17 15 16 17 16 16 17 17 17 18 19 20 21 21 21 22 22 23 23 23 23 24 24 23
9 10 9 7 7 9 10 9 7 6 6 7 6 6 6 6 6 7 8 8 7 6 5 3 3 4 4 4 6 12 16 20 21 20 17 17 16 16 17 19 18 18 19 18 17 18 18 17 18 19 20 21 22 22 22 23 23 23 24 25 25 25 24
8 10 8 6 7 9 9 8 7 7 6 6 6 6 5 5 5 5 6 7 6 6 5 4 3 4 5 5 5 7 11 16 20 20 19 18 18 19 19 19 19 19 20 19 18 18 18 19 19 20 21 21 22 22 22 23 24 24 25 25 25 25 25
7 8 8 7 8 10 9 7 7 7 6 6 7 6 5 5 4 4 5 5 5 5 5 5 5 5 6 7 7 7 9 11 13 17 20 21 21 22 21 19 19 20 20 19 19 19 19 19 20 21 21 22 22 23 23 23 24 25 24 24 25 25 25
9 7 9 9 9 10 8 7 8 7 6 6 6 5 5 5 4 4 4 5 5 5 5 6 6 7 8 9 8 7 8 8 9 11 17 22 24 25 23 21 21 21 22 21 20 20 19 19 20 20 21 22 23 24 24 25 25 25 25 25 26 27 26
12 10 10 11 11 10 9 8 8 8 7 6 5 5 5 5 4 4 4 5 5 6 6 7 7 8 9 10 11 9 6 6 7 9 12 16 21 25 26 24 23 24 25 25 24 23 22 21 21 21 22 23 24 24 25 26 26 26 25 26 27 27 27
13 10 11 13 13 12 11 10 9 8 8 8 6 6 6 6 6 6 5 5 5 6 6 7 8 9 10 11 12 12 7 4 6 9 10 10 12 17 21 23 25 27 28 28 27 26 25 24 24 24 25 25 25 26 26 27 27 26 26 27 27 27 27
12 10 12 14 13 13 13 12 11 9 8 8 8 8 7 7 7 7 6 6 6 6 6 7 9 10 11 12 12 12 9 6 5 7 10 11 11 12 15 18 23 27 29 30 30 29 29 28 27 27 28 28 27 28 28 28 27 27 27 28 28 28 28
13 12 13 13 12 12 13 13 13 11 8 8 9 9 9 8 8 8 8 8 8 7 7 7 8 10 12 13 13 13 12 9 6 7 9 10 11 11 12 14 16 19 22 25 27 29 30 31 31 31 31 31 30 30 30 30 29 29 30 31 31 31 31
14 14 15 14 13 12 12 13 13 12 9 9 9 9 10 9 9 9 9 9 9 9 9 8 9 10 11 12 13 14 14 12 10 9 9 9 10 11 12 13 14 15 17 18 21 23 25 27 29 31 33 34 34 34 33 33 33 33 33 34 34 35 34
17 17 17 15 13 12 13 13 13 11 10 10 10 10 10 10 10 10 10 10 10 10 11 10 10 11 11 12 13 14 14 14 12 11 11 11 11 11 12 13 15 16 17 18 19 20 21 22 24 25 28 31 34 35 36 36 36 36 36 36 37 38 38
22 20 18 15 14 13 13 13 12 11 11 11 10 10 10 10 11 10 10 11 11 11 12 12 12 12 12 12 13 13 14 14 14 13 13 13 13 13 13 14 15 15 16 17 18 20 21 22 23 23 23 25 27 30 33 35 37 38 39 39 40 40 40
24 23 20 17 15 14 13 13 13 12 12 12 11 11 10 10 11 11 11 12 12 12 13 13 13 13 13 13 14 14 14 14 14 14 14 14 15 15 15 15 16 16 17 17 18 19 21 22 23 24 24 24 25 26 28 30 32 34 37 39 40 40 41
25 24 21 18 16 15 14 13 14 14 13 12 12 11 11 11 11 12 12 12 13 13 14 14 14 15 15 15 15 15 15 15 15 16 16 16 16 16 16 17 17 18 18 19 19 20 21 22 23 24 24 25 26 27 28 29 30 31 33 35 36 36 37
24 24 22 19 17 15 14 14 15 15 14 14 13 12 11 12 12 12 13 13 13 14 14 15 15 16 16 16 16 16 17 17 16 16 17 17 18 18 18 18 19 19 20 20 21 22 23 23 24 24 25 26 27 27 29 30 31 32 32 33 34 34 35
24 24 23 21 18 16 15 15 15 15 15 15 14 13 13 13 13 13 13 14 14 15 15 16 16 16 17 17 18 18 18 18 18 17 17 18 19 19 20 20 20 20 21 22 23 23 24 24 25 26 26 27 28 28 30 31 32 33 33 34 35 35 35
23 24 23 22 19 17 16 15 15 16 16 15 15 14 14 14 14 14 14 15 16 16 16 16 17 17 17 18 18 19 19 19 19 18 18 18 19 20 20 21 21 21 22 23 24 24 25 25 26 27 27 28 29 30 30 31 33 34 34 35 36 36 37
24 24 23 23 21 19 18 16 15 16 16 15 15 15 15 15 15 15 15 16 17 17 17 18 18 17 18 18 18 19 20 20 19 19 20 20 19 19 19 20 21 22 22 22 23 24 25 25 26 27 27 28 29 30 31 32 33 34 35 36 36 37 37
26 25 24 23 22 21 19 17 16 16 16 16 16 15 15 15 15 15 15 16 17 18 18 18 18 18 18 18 18 19 20 20 20 20 20 20 20 19 19 19 20 21 21 22 22 23 23 24 25 26 26 27 28 29 31 32 33 35 36 37 37 37 38

ECMWFFLT1_500_spd_210.txt.gz
Wind_Speed
9 10 12 12 12 13 13 11 9 11 13 13 14 15 17 21 24 25 25 25 26 25 25 26 28 28 27 24 24 27 25 23 26 26 24 23 21 20 20 20 19 19 18 19 20 21 22 22 22 23 22 21 20 20 19 18 17 18 19 19 20 19 17
9 10 11 11 12 14 13 12 11 12 13 14 14 15 17 20 24 25 24 24 25 26 26 27 28 28 30 30 28 29 29 25 26 28 26 24 23 21 21 21 21 20 20 20 20 21 22 23 23 23 23 23 22 21 20 19 19 19 20 20 20 20 20
12 11 10 10 10 11 12 13 13 13 13 14 14 14 15 18 22 24 24 23 24 26 27 28 27 27 31 34 31 31 30 27 26 28 27 25 24 23 22 23 23 22 21 21 20 21 22 24 24 23 24 24 23 23 22 20 20 20 21 22 22 22 22
15 13 10 8 8 9 11 12 13 13 13 13 14 14 15 17 20 22 22 21 23 25 27 28 26 26 29 32 32 31 30 29 28 28 28 27 25 24 24 24 25 24 23 22 21 21 23 24 25 24 24 24 24 24 23 21 20 20 21 22 23 24 24
15 14 10 7 7 9 10 11 12 11 11 13 14 15 16 18 20 21 20 20 21 22 24 26 25 24 27 31 33 32 30 30 30 28 28 27 25 25 25 25 26 25 24 23 22 22 23 24 25 24 24 24 24 24 24 23 22 22 21 22 23 25 24
14 12 9 8 8 8 9 10 9 8 10 13 15 15 17 19 21 20 19 18 19 20 22 25 25 24 26 30 33 33 31 31 31 29 27 26 25 25 25 25 26 25 24 24 23 23 24 24 25 25 24 24 24 24 24 24 24 23 23 23 24 25 24
13 11 9 8 8 8 8 7 6 7 10 11 11 13 16 19 20 19 18 18 19 20 21 24 26 25 26 29 31 31 31 31 31 29 26 24 24 24 25 26 26 26 25 24 24 24 25 25 25 26 25 24 23 24 24 25 26 26 25 24 24 25 24
12 10 8 8 8 8 8 6 6 7 9 8 8 10 14 16 18 17 16 16 18 19 19 22 25 24 24 27 28 27 26 26 27 27 24 23 23 24 25 26 26 26 25 25 25 24 25 26 26 26 25 24 23 23 24 25 27 27 27 25 24 23 23
11 10 8 8 8 8 7 5 4 6 7 6 7 9 12 14 14 14 14 14 16 17 17 20 22 22 22 24 24 22 22 23 25 26 24 23 23 24 26 26 25 25 25 25 25 25 25 26 27 26 25 25 24 23 23 25 27 28 28 26 24 24 23
12 11 8 8 7 6 5 5 5 5 5 5 5 7 11 12 11 11 11 12 13 14 16 18 20 22 23 24 23 23 24 25 26 27 26 25 25 26 27 27 25 25 25 25 25 25 26 27 27 26 26 27 25 23 23 25 27 28 27 26 26 25 25
13 11 10 8 7 5 5 4 5 4 4 3 4 5 8 10 10 10 10 10 11 12 14 16 18 22 24 24 24 25 25 25 26 27 27 27 26 28 28 27 26 25 25 25 25 25 26 26 27 26 26 26 25 23 23 25 28 28 27 27 28 27 26
13 12 10 8 6 5 5 5 5 4 2 2 3 4 6 8 8 9 9 9 9 10 11 13 16 20 23 23 24 24 24 25 26 27 27 26 26 28 28 27 25 25 25 25 25 25 26 26 26 26 26 26 26 24 24 25 28 28 28 28 29 29 28
13 12 10 8 6 5 4 4 5 4 3 4 4 4 5 7 6 7 7 7 7 7 9 11 13 16 17 19 21 22 23 24 26 27 26 26 27 28 27 24 23 23 24 24 24 25 26 26 25 25 25 26 26 25 25 26 28 28 27 28 29 30 30
14 12 10 9 7 5 4 4 4 4 4 4 4 4 4 5 5 6 5 5 5 5 5 7 10 12 12 12 14 18 21 24 26 27 26 25 26 27 25 23 23 23 24 25 24 25 25 26 26 25 25 25 26 25 26 27 27 26 26 27 29 30 30
15 14 12 11 8 6 5 4 4 5 5 4 3 4 4 4 5 5 5 4 4 4 3 3 6 9 11 11 11 13 17 20 21 21 20 21 23 24 24 24 24 23 24 24 24 24 25 25 25 25 24 25 25 26 26 26 25 26 26 26 28 29 29
16 15 14 13 9 7 5 4 4 5 4 3 4 4 3 4 4 5 5 4 3 3 3 3 2 5 8 11 13 14 15 16 16 16 16 17 19 21 23 24 24 22 22 23 23 23 24 25 25 24 24 25 25 25 25 25 25 26 26 26 27 28 29
16 15 14 13 10 7 5 4 4 5 4 3 3 4 3 4 4 4 4 4 3 2 2 3 2 2 4 9 12 14 15 16 15 15 15 16 16 18 21 23 23 22 21 22 22 23 23 24 25 25 24 25 25 25 25 25 25 26 27 26 26 28 29
16 15 14 12 9 7 5 4 4 5 4 3 3 4 3 4 4 4 4 4 3 3 2 2 3 2 2 5 9 12 14 15 15 15 15 15 15 16 18 20 21 21 22 22 23 23 24 24 25 26 26 26 26 25 25 25 26 27 27 27 27 28 29
14 14 14 12 9 8 6 5 5 7 6 4 4 4 4 4 5 4 4 4 3 2 2 2 2 3 3 2 4 9 13 14 15 16 16 15 15 15 17 18 19 20 21 22 22 22 23 24 24 24 25 26 27 27 25 26 27 28 28 27 27 28 28
11 13 12 11 10 9 7 5 5 6 7 6 5 5 4 5 5 5 4 4 3 3 2 2 2 3 2 2 2 5 10 14 15 16 15 14 14 14 15 16 17 19 19 19 19 20 21 23 24 24 23 24 26 27 26 26 27 28 29 28 28 29 29
10 12 12 11 10 9 8 7 6 6 6 6 6 6 5 5 5 5 5 5 4 3 3 3 3 3 2 2 2 2 5 10 14 16 17 15 14 13 14 15 16 17 17 17 18 19 19 21 23 23 23 23 25 26 26 26 27 28 28 29 29 29 29
11 12 12 12 11 10 9 8 7 7 7 6 7 7 6 5 5 5 5 5 5 4 4 4 4 3 3 3 2 2 3 4 8 12 16 16 15 15 15 15 16 17 17 18 19 19 19 20 21 22 22 22 23 25 25 26 26 27 28 29 30 30 29
13 13 12 12 11 10 9 9 8 7 7 7 7 7 7 6 5 5 6 6 6 6 5 5 5 4 4 3 2 2 2 3 3 5 9 13 16 17 17 17 17 17 17 17 18 19 20 21 20 20 21 22 22 23 24 25 26 28 29 31 31 30 29
13 13 12 10 9 8 7 8 7 7 8 8 8 8 8 7 6 6 6 6 7 7 7 6 5 4 3 3 2 1 0 2 2 2 2 5 10 15 19 20 19 18 18 17 18 18 19 20 20 19 19 20 22 23 24 25 27 28 30 31 31 30 30
12 12 12 9 7 7 7 7 7 8 8 9 8 8 8 7 7 7 7 7 7 7 7 8 7 5 2 2 2 1 1 2 2 2 2 2 4 8 13 18 20 20 19 19 19 19 19 20 21 20 20 21 22 23 24 25 25 26 26 27 28 29 30
12 13 12 10 8 8 8 8 8 9 9 9 10 9 9 8 7 7 8 8 8 7 7 8 8 6 4 2 3 3 2 3 3 4 4 4 4 5 7 11 16 19 21 21 20 20 21 22 22 21 20 21 22 23 23 24 24 24 24 26 27 28 29
15 14 13 12 10 10 9 9 10 11 10 10 10 10 10 9 8 8 8 9 9 8 7 7 7 7 6 4 4 4 4 4 4 5 5 5 6 6 6 7 10 13 18 22 23 23 23 23 22 22 21 22 22 23 23 23 23 24 25 27 28 29 29
17 16 14 13 12 11 9 9 11 12 11 11 12 12 11 10 9 8 9 9 9 9 8 7 7 7 7 6 5 5 5 5 6 6 6 6 7 7 8 8 9 9 12 16 21 25 26 25 24 24 24 24 24 24 24 24 25 26 27 28 30 30 30
18 16 15 15 14 13 11 11 12 12 12 12 13 13 12 11 10 9 8 9 9 10 9 8 7 7 7 7 7 6 6 6 7 8 8 8 8 8 9 10 10 11 11 12 15 19 23 26 27 27 27 27 26 26 26 26 27 28 29 29 30 30 30
17 16 15 16 16 14 13 13 14 13 12 12 13 13 13 11 10 10 9 9 10 10 10 9 8 7 8 8 8 8 8 8 8 9 10 10 10 10 10 11 11 12 12 13 13 15 17 20 22 24 26 28 29 30 31 31 30 30 30 30 30 30 30
16 16 16 17 17 16 15 16 17 15 13 11 12 14 14 13 12 10 9 9 10 10 11 10 9 8 8 8 9 9 9 9 9 9 10 11 12 12 12 12 12 13 13 14 14 14 15 16 18 19 21 23 26 29 31 33 33 33 34 33 33 33 33
17 17 17 18 18 18 18 19 19 18 15 13 12 13 15 15 13 12 10 10 10 10 10 10 10 8 8 9 9 9 9 10 10 10 10 11 12 13 13 14 14 14 15 15 15 16 16 17 18 19 20 21 23 24 27 29 30 31 32 33 34 35 35
17 17 19 20 20 21 21 20 20 20 18 15 13 13 15 16 15 14 12 12 11 10 10 10 10 9 8 8 9 9 10 10 10 11 11 11 11 12 13 14 15 16 16 17 17 17 17 18 18 19 20 22 23 24 25 26 27 28 29 29 30 31 32
17 18 19 21 21 22 22 21 21 21 20 17 15 14 15 16 17 16 15 14 12 11 10 10 10 9 9 8 9 9 10 10 11 11 11 12 12 12 13 14 15 16 17 18 18 19 19 19 20 20 21 22 23 24 25 26 26 27 27 28 29 30 30
18 18 19 20 20 21 22 22 22 22 21 19 17 16 16 16 16 17 16 16 14 12 11 10 11 11 10 10 10 9 10 10 10 11 11 12 12 13 13 14 14 16 17 18 19 20 20 21 21 22 23 24 24 25 26 26 27 27 28 28 29 30 30
18 17 19 20 20 20 21 22 22 22 21 20 19 19 18 17 17 17 17 17 16 14 12 11 11 11 11 11 11 10 10 10 11 11 11 12 13 13 14 14 15 15 16 17 18 20 21 22 22 23 24 24 25 26 27 28 29 29 30 30 30 31 31
20 18 18 19 20 21 22 22 22 23 23 21 20 20 20 19 18 17 18 18 17 16 15 14 13 12 12 11 11 11 11 11 12 12 12 12 13 14 14 14 15 15 16 17 19 19 20 21 22 23 24 25 26 27 28 29 30 30 31 32 32 33 33
23 20 19 19 21 22 22 22 22 24 24 23 22 22 22 21 20 18 18 18 19 18 17 16 14 13 13 12 12 12 12 12 13 13 13 13 13 14 14 15 15 16 16 17 19 20 20 21 21 22 23 24 25 26 28 29 30 30 31 32 32 33 33

ECMWFFLT1_500_spd_216.txt.gz
Wind_Speed
14 12 11 12 13 14 15 16 17 18 19 19 18 18 18 17 17 16 16 16 16 17 19 20 22 23 23 24 25 26 27 28 30 31 30 28 28 26 25 23 22 22 24 25 26 26 27 27 26 26 25 25 25 24 24 23 23 22 22 22 22 21 19
15 14 14 15 15 15 16 17 17 17 18 19 19 18 17 16 16 16 17 17 18 19 20 20 21 22 23 24 25 26 28 28 30 32 32 31 30 29 28 26 24 23 24 26 27 27 28 27 27 27 26 26 26 26 25 25 24 24 23 24 24 23 22
14 14 15 16 16 17 17 17 17 17 18 19 19 18 17 17 17 17 19 20 20 20 20 20 20 20 22 23 24 26 28 28 29 31 33 33 32 32 31 29 26 25 25 26 27 27 27 27 27 27 26 26 27 27 26 26 25 25 25 25 25 25 24
13 14 14 15 17 17 17 17 17 16 16 16 17 17 16 17 17 18 19 19 19 19 19 19 19 19 20 22 23 24 26 26 27 29 31 33 33 33 34 32 29 28 27 27 28 28 27 27 27 27 27 26 27 27 27 26 26 26 26 26 26 25 25
14 13 14 15 16 17 17 17 16 15 14 14 15 15 15 16 17 18 18 18 18 18 18 19 18 19 20 20 21 22 23 24 25 27 28 31 33 33 33 33 31 29 28 28 28 28 27 26 26 26 26 26 26 26 26 26 26 26 26 26 26 26 26
14 14 14 15 16 16 16 16 15 14 14 14 14 14 15 16 17 17 18 19 19 18 17 17 18 18 19 19 20 20 21 22 23 24 26 29 33 32 32 33 32 30 29 29 28 28 27 26 26 26 26 26 26 26 26 26 27 26 26 27 27 27 27
15 15 16 16 16 16 15 14 14 14 14 13 14 14 15 16 17 17 17 17 16 15 14 15 17 17 18 18 18 18 20 21 22 22 24 27 31 34 33 32 31 30 30 29 29 28 28 27 26 26 26 26 27 27 27 27 27 27 27 27 27 27 27
15 15 15 16 16 16 14 14 14 13 13 12 13 14 14 15 16 16 14 13 12 12 13 15 16 17 17 17 18 18 20 22 22 22 23 24 28 33 34 31 30 30 30 29 29 28 28 28 28 27 27 27 28 28 28 28 28 28 28 28 28 27 26
15 15 15 16 16 16 15 14 13 13 11 11 12 12 13 13 13 13 13 12 11 12 14 15 15 16 16 17 18 19 21 23 23 22 22 24 27 30 32 31 31 30 30 29 29 28 29 30 30 29 28 28 28 28 28 28 28 28 28 28 29 28 27
15 15 16 16 16 15 14 13 13 12 10 10 11 11 11 11 11 11 11 11 12 13 15 15 15 14 15 16 18 20 20 21 22 22 22 24 25 27 31 33 32 30 29 29 29 29 29 31 31 29 29 28 27 27 27 27 28 28 28 29 29 29 28
14 15 17 17 16 15 13 12 11 10 10 10 11 10 10 9 9 9 9 10 11 12 14 15 14 13 14 15 16 18 17 18 19 20 21 23 23 24 29 33 33 30 29 29 30 30 30 31 31 29 29 28 26 25 26 26 27 27 28 29 30 30 29
15 16 18 17 16 15 12 11 9 9 9 10 11 11 10 10 10 10 10 11 12 12 13 14 14 13 13 12 14 15 14 14 15 15 19 28 31 26 27 31 32 31 29 28 29 30 29 29 29 29 30 29 27 27 27 27 27 28 28 29 30 31 30
16 17 18 17 17 15 12 11 9 8 8 9 11 11 11 11 11 11 11 11 12 12 13 13 14 13 12 10 11 12 11 11 10 12 18 30 37 33 30 31 32 31 30 29 28 28 27 27 28 29 29 29 28 28 28 27 27 28 28 29 30 31 31
16 17 17 17 17 15 13 11 9 8 8 9 10 11 10 10 11 11 11 11 12 12 12 13 13 13 12 9 8 10 9 9 9 12 17 25 32 33 32 32 32 31 31 30 28 27 25 26 28 28 29 29 28 27 27 27 27 28 28 29 30 30 30
17 17 18 18 17 15 13 11 10 9 10 11 11 10 10 10 10 11 11 11 11 11 12 12 13 11 10 8 6 8 8 8 9 10 14 19 21 24 28 30 31 32 32 30 27 25 25 26 28 28 28 28 27 27 27 27 28 28 29 29 29 30 30
17 17 17 17 17 15 13 11 11 10 11 12 11 10 9 9 9 10 10 10 10 10 11 12 12 10 9 7 5 6 7 8 9 9 12 15 19 22 25 28 30 32 31 29 26 25 26 28 29 28 27 27 26 26 27 27 28 29 30 30 30 30 29
17 16 16 16 16 15 14 12 11 11 11 11 11 11 10 10 10 10 10 10 10 10 10 10 10 9 8 6 5 4 5 6 8 8 10 14 19 23 26 28 28 28 28 26 25 25 26 27 28 28 27 26 26 26 27 27 28 29 30 31 31 30 29
17 15 15 16 15 15 13 12 11 11 11 10 10 10 10 10 10 10 10 10 9 9 9 9 9 9 8 7 6 4 2 5 7 8 10 13 18 22 24 26 26 26 26 26 26 27 26 27 28 27 26 25 25 25 26 27 28 28 30 31 30 29 28
17 15 16 16 15 14 13 12 11 10 10 10 10 9 9 9 9 9 9 9 9 9 8 8 9 9 8 8 6 5 1 3 6 7 9 11 13 15 17 19 22 25 27 28 28 28 27 28 28 27 25 25 25 26 27 27 28 29 30 29 29 29 29
17 16 16 16 14 14 13 11 11 10 9 10 10 9 9 8 8 8 8 9 9 9 8 8 9 9 9 8 7 5 3 1 3 5 8 10 10 11 11 13 16 20 24 28 30 30 30 29 28 26 26 25 26 28 28 27 28 29 29 28 28 29 28
17 15 15 14 13 13 12 10 11 11 10 10 10 10 9 8 8 8 8 8 9 9 9 8 9 9 10 9 8 6 5 4 3 2 5 8 9 10 11 12 13 15 17 22 26 26 27 28 27 26 26 26 27 27 27 27 28 29 29 28 28 27 26
17 15 13 12 13 12 11 10 11 11 11 11 10 10 9 8 8 8 7 8 8 8 9 9 9 9 10 10 9 8 7 6 5 4 3 4 7 9 11 12 14 14 14 16 19 21 23 25 26 25 24 24 25 25 26 27 28 28 28 28 27 26 26
16 14 13 12 13 13 12 11 11 11 12 12 11 11 10 9 8 8 8 8 8 8 8 9 9 9 10 10 10 9 8 7 6 6 5 4 4 8 11 12 13 13 13 14 16 18 21 22 23 22 22 22 23 23 25 26 26 27 28 27 26 26 26
15 14 13 13 13 14 13 12 12 12 12 13 12 11 11 10 9 8 8 8 8 8 8 8 8 9 9 10 10 9 9 8 7 6 6 6 4 4 9 12 13 13 13 13 14 16 18 19 20 21 22 22 23 23 24 24 25 25 27 27 27 26 26
15 14 14 14 14 15 15 14 13 13 13 13 13 13 12 11 10 9 9 9 8 8 8 8 8 9 9 9 9 9 9 9 8 8 7 6 6 4 4 8 12 13 14 14 14 15 16 18 19 20 22 22 22 23 24 24 24 25 27 27 26 25 26
17 15 16 16 16 15 15 15 14 14 14 13 13 14 13 12 11 10 10 10 9 8 8 8 8 8 9 9 9 9 9 9 9 9 8 7 6 5 4 4 7 11 14 15 15 15 16 16 18 19 20 21 22 23 23 24 24 26 27 27 25 24 25
21 20 19 19 17 16 15 15 14 14 15 14 14 14 14 13 12 11 10 10 10 9 9 8 8 8 8 9 9 9 8 8 9 9 9 9 8 7 6 5 4 6 9 12 15 16 17 16 16 17 19 21 23 24 24 23 23 24 24 24 23 23 24
24 24 23 21 20 17 15 14 14 14 15 16 15 14 14 14 13 12 11 11 11 10 10 9 8 8 8 8 9 9 9 9 8 9 9 9 9 9 8 7 6 5 5 6 9 13 15 17 18 18 19 20 22 23 24 24 22 21 22 21 21 21 22
27 27 26 25 23 20 16 14 14 14 15 16 16 16 15 15 14 12 11 11 11 11 11 11 11 10 9 8 9 9 10 10 9 9 9 9 9 9 9 8 8 7 6 6 6 7 9 12 15 18 20 22 23 23 24 23 22 22 22 22 21 21 22
28 28 28 27 25 22 19 15 15 15 16 17 17 17 16 16 16 14 12 11 11 11 11 11 12 12 11 10 9 9 10 10 10 10 9 9 9 9 9 9 9 8 8 8 8 8 7 8 9 12 15 19 22 24 25 24 23 22 23 23 22 22 23
27 27 28 27 25 24 21 18 16 16 17 18 18 18 17 17 16 15 14 13 12 12 11 11 11 12 12 11 11 10 10 10 10 10 10 10 9 9 9 9 9 9 9 9 9 9 9 9 9 9 10 12 15 19 22 24 23 24 24 24 24 24 25
26 27 27 26 25 25 23 21 19 17 17 18 18 18 18 17 16 16 16 15 14 13 12 12 11 12 12 12 11 11 11 10 10 10 11 11 10 10 10 10 10 10 10 10 10 10 10 11 11 11 11 11 12 14 17 19 20 21 22 22 23 24 25
28 28 27 26 26 26 25 24 23 21 18 18 18 19 18 18 17 16 17 16 15 14 13 13 13 12 12 12 12 12 12 11 11 11 11 11 11 12 12 12 12 11 11 11 11 11 11 11 11 11 12 12 13 14 16 17 16 16 17 18 19 20 22
29 29 28 28 28 28 27 26 26 24 21 19 19 18 18 18 17 17 17 17 17 16 15 14 14 13 13 12 12 13 13 13 12 12 12 12 12 12 12 12 12 13 13 13 13 12 12 12 12 12 13 13 14 14 15 16 17 16 16 17 18 19 20
31 30 30 30 30 30 29 28 27 26 24 22 20 19 18 18 18 18 18 18 18 17 17 16 15 15 14 13 13 13 13 14 14 14 14 13 13 13 13 13 13 13 13 13 13 14 14 14 14 14 14 14 15 15 15 16 17 17 17 18 19 20 21
32 32 32 32 31 31 30 29 28 28 27 24 22 20 19 19 19 19 19 19 19 19 19 18 17 16 15 15 14 14 14 14 14 14 15 15 15 15 14 14 14 14 14 14 14 14 14 14 14 15 15 15 16 16 17 17 17 17 18 19 19 20 21
34 34 35 35 33 32 31 31 29 29 28 26 25 24 22 21 21 21 21 21 20 20 20 20 19 18 17 16 15 15 15 15 15 15 15 16 16 16 16 16 15 15 14 14 14 14 14 14 14 14 15 16 17 18 18 18 18 18 18 19 20 20 21
34 33 34 35 34 33 33 33 32 31 31 30 29 27 26 24 23 24 23 23 22 21 21 21 20 20 18 17 16 16 16 16 16 16 16 17 17 18 18 18 17 17 16 16 15 15 15 14 14 14 15 16 16 17 18 18 19 19 19 19 19 20 20

ECMWFFLT1_500_spd_222.txt.gz
Wind_Speed
14 14 14 13 12 11 11 11 11 12 12 13 14 14 15 15 16 16 17 17 18 18 18 18 19 19 19 20 21 22 23 23 24 25 24 24 23 23 23 23 23 23 22 22 23 24 26 26 26 26 26 26 26 26 26 25 25 25 25 25 24 23 22
14 15 15 13 12 11 11 11 11 12 12 13 14 15 15 16 16 16 17 17 17 18 19 19 20 21 21 21 21 22 23 23 25 25 25 25 26 26 25 25 25 25 24 24 24 24 26 27 27 27 27 27 27 27 27 26 26 25 26 26 25 25 24
16 16 16 14 13 12 12 12 12 12 13 13 14 15 16 16 16 16 17 17 18 18 19 20 21 22 22 21 21 22 23 24 25 25 25 26 27 28 28 27 26 26 27 27 26 26 26 27 28 28 27 27 27 28 28 27 27 26 27 27 27 26 26
17 17 16 15 14 13 12 12 12 12 12 12 13 14 15 15 15 16 16 17 18 18 19 19 20 21 22 22 22 23 23 25 25 26 27 27 28 29 29 28 28 28 29 29 29 28 27 27 27 28 28 28 28 28 28 28 28 27 27 28 28 28 27
18 17 15 14 14 14 13 11 12 12 12 12 11 12 13 14 15 15 15 16 17 18 19 19 20 21 22 23 24 24 24 25 26 27 27 28 29 29 29 29 30 30 31 31 31 30 30 29 28 27 28 28 29 29 29 29 29 28 28 28 28 28 28
19 17 15 14 15 15 14 12 11 11 12 12 11 12 13 14 14 14 14 15 16 17 18 19 20 21 22 23 24 24 24 25 26 27 28 28 29 30 29 30 32 32 33 34 33 32 32 31 29 28 28 29 30 30 29 30 30 29 29 29 28 28 28
20 19 15 14 15 16 15 13 11 10 11 11 12 12 13 13 14 13 13 14 14 15 17 18 19 20 21 23 24 25 26 26 27 28 29 29 29 30 30 31 32 33 35 36 35 35 35 34 32 30 29 29 30 31 30 30 31 30 29 29 29 29 29
21 20 16 14 15 16 15 14 11 10 9 10 11 12 12 12 12 11 11 11 12 14 15 17 19 20 20 22 23 26 27 27 27 28 29 29 30 30 31 31 32 34 35 36 36 36 37 37 35 33 32 31 31 31 31 31 32 32 31 30 30 29 29
22 20 17 15 15 16 16 15 12 10 9 9 9 10 10 10 10 10 9 9 10 11 13 15 17 18 18 18 20 23 26 27 27 28 28 29 30 31 32 32 33 35 36 37 38 38 38 39 39 37 35 33 31 31 32 31 32 33 32 31 30 30 30
22 20 17 15 16 16 16 15 13 10 8 8 8 9 9 8 8 8 8 8 8 9 10 12 14 15 16 16 17 19 22 24 26 27 28 29 30 31 32 34 35 36 37 38 39 39 39 40 41 39 37 35 33 32 32 32 33 33 33 31 31 31 31
22 20 17 16 16 15 16 15 14 11 9 8 8 8 8 8 8 8 8 8 9 9 9 10 11 13 14 14 16 18 19 21 25 26 27 28 29 30 32 34 36 36 38 38 39 39 39 41 41 40 39 36 33 32 33 33 34 34 34 33 32 32 32
21 20 18 16 15 15 16 16 15 13 11 9 8 8 8 8 8 8 8 9 9 9 9 9 10 11 13 14 15 16 17 19 23 25 26 27 28 30 32 34 34 35 36 38 38 38 38 40 41 40 40 38 35 34 34 34 35 36 35 34 34 34 33
20 19 18 17 16 16 16 16 16 15 12 10 9 9 8 8 8 8 8 8 8 8 8 9 9 11 12 14 15 16 17 18 21 23 25 26 27 28 30 32 32 33 35 36 37 38 38 40 41 41 41 39 36 35 35 35 36 37 36 36 35 35 35
19 18 18 17 16 17 17 16 16 14 13 10 9 8 8 8 8 8 7 7 7 8 8 8 9 10 11 13 14 15 16 17 19 21 23 24 25 27 29 30 32 33 34 35 36 38 37 37 39 41 42 39 36 35 36 36 37 37 37 37 37 36 36
19 17 17 17 16 17 17 16 16 15 12 10 9 8 8 8 8 7 7 7 7 8 8 8 9 10 10 11 13 14 15 16 18 19 21 22 23 25 27 30 31 33 34 35 36 37 37 37 40 42 42 40 37 36 36 36 35 36 36 36 36 36 35
18 16 16 16 16 17 17 16 17 15 13 11 10 9 8 7 7 7 7 7 7 7 8 8 9 9 9 10 11 12 13 14 15 17 19 20 22 24 26 27 29 31 33 33 35 36 36 38 41 43 42 40 37 36 35 34 34 35 35 34 34 34 35
18 15 15 16 16 16 17 16 17 16 14 12 10 10 8 7 7 7 7 7 7 7 7 7 8 8 8 9 10 10 11 12 13 14 16 18 20 22 22 23 27 32 35 37 37 36 37 38 40 42 42 39 37 36 36 35 35 35 35 35 35 35 35
18 15 15 16 16 16 16 16 16 16 14 13 11 10 9 7 7 7 7 8 8 7 7 7 7 7 8 9 8 8 9 10 10 12 13 16 18 19 18 18 20 23 27 35 39 38 37 38 39 41 42 39 38 38 37 35 35 35 36 37 37 36 35
19 16 15 15 16 16 15 15 15 15 14 13 11 9 8 7 6 6 7 8 8 7 7 6 6 7 7 8 8 7 8 9 9 10 11 13 16 16 15 14 16 17 18 26 36 38 37 36 37 40 42 40 38 37 37 37 37 35 36 37 38 37 36
18 16 15 15 16 16 15 14 14 14 13 12 11 9 7 6 6 7 7 8 8 7 7 6 6 6 6 7 7 7 8 8 9 9 9 10 12 14 13 12 14 15 15 18 27 35 36 35 35 39 41 40 38 37 38 38 36 35 35 36 37 37 36
18 17 16 15 15 16 16 14 14 14 13 12 11 10 8 7 6 7 7 8 8 8 7 6 6 5 6 6 6 6 6 7 8 8 9 9 10 11 11 10 10 10 11 12 19 29 33 32 33 38 42 42 39 37 37 36 34 33 34 35 36 37 37
20 20 18 16 15 15 16 15 14 14 14 12 11 11 10 8 7 7 7 8 8 8 8 7 6 6 5 5 5 5 5 5 6 7 7 8 8 9 8 8 7 8 8 8 11 21 28 31 33 37 40 42 39 37 35 33 32 33 34 34 35 36 36
23 23 21 19 17 16 16 15 14 14 14 13 12 11 11 10 9 7 7 8 8 8 8 8 7 6 6 6 5 5 5 5 5 5 6 7 7 7 7 6 5 6 7 7 7 10 16 23 29 33 35 37 36 34 32 31 31 32 33 33 33 34 34
27 26 24 22 19 17 17 16 15 15 15 14 13 12 12 12 11 9 8 8 8 9 9 9 8 7 6 6 5 5 5 4 4 5 5 6 6 6 6 5 4 4 6 7 6 7 8 13 19 25 29 31 32 32 31 31 31 31 32 32 33 33 33
29 28 27 25 22 20 19 18 17 18 17 16 15 14 13 13 13 12 10 9 9 9 9 9 9 8 7 6 6 5 5 4 4 4 5 5 5 6 6 5 4 2 3 4 4 5 6 8 11 15 20 24 28 30 31 31 31 30 32 33 33 32 31
31 30 29 27 25 23 22 20 19 20 20 19 17 16 14 14 14 14 12 11 10 10 10 10 9 9 8 7 6 6 5 4 4 4 4 5 5 5 5 5 5 3 1 3 3 3 4 5 7 9 11 14 19 24 28 32 32 31 31 31 30 29 29
32 31 31 30 28 27 25 23 22 21 21 20 19 17 16 15 14 14 14 13 12 11 10 10 10 9 9 8 7 6 6 5 5 4 3 4 4 5 4 4 4 4 2 1 3 4 4 5 6 7 8 9 10 13 17 22 25 26 26 26 26 27 28
33 32 32 32 31 29 28 26 25 24 24 22 20 18 17 16 15 14 14 14 14 13 12 11 10 10 10 9 8 7 6 5 5 5 4 3 3 4 4 4 3 3 2 1 1 2 4 5 6 7 7 8 9 10 11 14 17 19 21 22 23 25 26
34 33 33 33 33 31 30 29 27 26 26 24 22 20 18 17 16 15 15 15 15 14 14 13 12 11 10 10 10 9 7 6 6 5 4 4 3 3 3 3 3 2 2 1 1 1 1 2 4 5 6 6 7 8 10 12 14 16 19 20 20 21 22
35 34 34 34 34 33 32 32 30 28 28 27 24 22 20 18 17 16 16 16 16 16 16 15 14 13 11 11 10 10 9 8 7 6 5 5 4 3 3 3 3 2 2 1 0 0 0 1 2 4 5 6 7 8 10 11 12 14 16 18 19 19 18
34 35 35 35 36 35 34 34 32 30 29 29 27 24 21 19 18 17 18 18 17 17 17 17 17 16 14 12 11 11 10 9 8 7 6 6 5 5 4 3 3 2 2 2 1 1 2 2 3 4 5 5 6 7 8 8 8 9 11 14 16 17 18
34 35 35 36 37 37 36 35 33 31 30 30 29 25 22 20 18 18 18 18 17 17 17 17 17 17 17 15 14 12 12 11 10 9 7 7 6 6 5 5 4 3 3 3 2 3 3 4 4 5 5 5 6 6 6 5 6 6 6 7 9 10 11
34 35 36 37 38 39 38 36 35 33 31 31 30 28 24 21 19 19 20 19 17 16 16 16 16 16 16 17 16 15 14 13 12 11 9 8 8 7 7 7 6 5 4 4 3 4 4 4 5 6 6 6 6 6 6 6 7 7 6 7 7 6 6
35 36 37 39 40 41 40 39 37 35 33 31 31 29 27 24 22 21 22 22 20 17 15 15 15 14 14 14 15 16 15 15 14 13 12 11 9 8 8 8 7 7 6 5 5 4 4 5 6 6 6 7 7 7 7 8 8 8 8 8 8 8 9
37 38 39 41 42 42 42 41 39 37 36 34 32 31 30 27 25 24 24 24 22 19 17 15 15 14 13 12 12 13 14 15 15 14 14 14 13 11 9 9 8 8 7 7 6 5 5 5 6 6 7 7 8 8 9 9 9 9 9 9 9 10 10
39 40 42 43 43 43 43 43 42 40 39 37 34 33 33 31 28 27 26 25 23 20 18 16 15 14 14 13 12 11 12 14 14 15 15 15 15 14 13 11 10 9 9 8 8 7 7 7 7 7 7 7 8 8 9 10 10 10 10 11 11 11 12
40 42 44 45 46 45 44 44 44 42 41 40 38 36 35 34 32 30 29 26 23 21 19 18 16 15 15 15 14 13 12 13 14 15 15 15 16 16 16 15 13 11 10 10 9 9 9 8 9 9 9 8 8 9 9 10 11 11 11 12 12 13 13
41 43 45 46 47 47 46 45 45 44 43 42 40 38 37 36 35 33 31 28 24 21 20 20 18 17 16 16 16 16 15 14 14 15 16 16 16 17 17 17 16 15 14 12 11 11 10 10 11 11 10 10 10 10 11 11 11 12 12 12 13 14 14